This demonstration page uses our WeatherBlox Daily Observations layout. Learn more.

41.55636, -103.73856

Hourly Observations for October 6, 2019

Temp ( °F °C ) Dew Point ( °F °C ) Humidity (%) Winds ( mph kmh ) Pressure ( in mb ) Visibility ( mi km ) Precip ( " mm )
12:58 am 00:58 Mostly Clear 50 9.9 21 -6.1 32 32 E 9 15 30.06 1018 10 16.0934 0 0
1:58 am 01:58 Mostly Cloudy 50 10 24 -4.5 36 36 SE 9 15 30.07 1018 10 16.0934 0 0
2:58 am 02:58 Cloudy 48 9.1 27 -3 43 43 E 6 9 30.07 1018 10 16.0934 0 0
3:58 am 03:58 Mostly Cloudy 48 8.9 25 -4 40 40 Calm 30.07 1018 10 16.0934 0 0
4:58 am 04:58 Cloudy 46 8 28 -2.2 49 49 NE 5 7 30.09 1019 10 16.0934 0 0
5:58 am 05:58 Cloudy 45 7.2 29 -1.6 54 54 N 3 6 30.11 1020 10 16.0934 0 0
6:58 am 06:58 Mostly Cloudy 46 7.5 31 -0.3 58 58 ENE 10 17 30.11 1020 10 16.0934 0 0
7:58 am 07:58 Cloudy 46 7.9 31 -0.4 56 56 NE 12 19 30.15 1021 10 16.0934 0 0
8:58 am 08:58 Mostly Cloudy 45 7.2 31 -0.7 58 58 E 7 11 30.17 1022 10 16.0934 0 0
9:58 am 09:58 Cloudy 44 6.5 31 -0.6 61 61 ENE 7 11 30.19 1023 10 16.0934 0 0
10:58 am 10:58 Cloudy 43 6.3 28 -2 56 56 NNW 3 6 30.23 1024 10 16.0934 0 0
11:58 am 11:58 Mostly Cloudy 41 5 28 -2.1 60 60 Calm 30.27 1025 10 16.0934 0 0
12:58 pm 12:58 Sunny 37 2.7 28 -2.3 70 70 SSW 6 9 30.32 1027 10 16.0934 0 0
1:58 pm 13:58 Sunny 36 2 28 -2.1 75 75 W 6 9 30.37 1029 10 16.0934 0 0
2:58 pm 14:58 Sunny 44 6.7 29 -1.9 55 55 SW 3 6 30.36 1028 10 16.0934 0 0
3:59 pm 15:59 Sunny 48 8.8 25 -3.9 41 41 Calm 30.36 1028 10 16.0934 0 0
4:58 pm 16:58 Sunny 51 10.4 23 -5.1 34 34 NW 15 24 30.38 1029 10 16.0934 0 0
5:58 pm 17:58 Sunny 53 11.6 22 -5.4 30 30 NW 15 24 30.34 1027 10 16.0934 0 0
6:58 pm 18:58 Sunny 55 12.7 21 -6.2 26 26 NW 9 15 30.32 1027 10 16.0934 0 0
7:58 pm 19:58 Sunny 57 13.9 20 -6.7 24 24 NNW 12 19 30.28 1025 10 16.0934 0 0
9:58 pm 21:58 Sunny 60 15.6 13 -10.5 16 16 NW 10 17 30.26 1025 10 16.0934 0 0
10:58 pm 22:58 Sunny 60 15.5 14 -10.2 16 16 NW 8 13 30.24 1024 10 16.0934 0 0
11:58 pm 23:58 Sunny 57 14.1 18 -7.7 21 21 N 5 7 30.24 1024 10 16.0934 0 0

Powered by AerisWeather